TimeMST,TemperatureF,Dew PointF,Humidity,Sea Level PressureIn,VisibilityMPH,Wind Direction,Wind SpeedMPH,Gust SpeedMPH,PrecipitationIn,Events,Conditions,WindDirDegrees,DateUTC
12:56 AM,21.9,16.0,78,30.07,10.0,SSW,9.2,-,N/A,,Clear,200,2013-02-25 07:56:00
1:56 AM,23.0,16.0,74,30.06,10.0,SW,9.2,-,N/A,,Clear,220,2013-02-25 08:56:00
2:56 AM,21.9,16.0,78,30.04,10.0,SSW,11.5,-,N/A,,Clear,200,2013-02-25 09:56:00
3:56 AM,24.1,17.1,75,30.02,10.0,SSW,10.4,-,N/A,,Clear,210,2013-02-25 10:56:00
4:56 AM,21.9,17.1,82,30.02,10.0,SSW,11.5,-,N/A,,Clear,200,2013-02-25 11:56:00
5:56 AM,23.0,17.1,78,30.01,10.0,SSW,12.7,-,N/A,,Clear,210,2013-02-25 12:56:00
6:56 AM,23.0,17.1,78,30.01,10.0,SSW,10.4,-,N/A,,Clear,210,2013-02-25 13:56:00
7:56 AM,28.0,19.0,69,29.99,10.0,SSW,15.0,-,N/A,,Clear,210,2013-02-25 14:56:00
8:56 AM,34.0,19.9,56,29.98,10.0,SW,17.3,21.9,N/A,,Clear,220,2013-02-25 15:56:00
9:56 AM,39.0,21.0,49,29.95,10.0,SSW,12.7,-,N/A,,Clear,210,2013-02-25 16:56:00
10:56 AM,43.0,21.0,42,29.92,10.0,SW,13.8,-,N/A,,Clear,230,2013-02-25 17:56:00
11:56 AM,45.0,21.0,39,29.91,10.0,SW,17.3,-,N/A,,Clear,230,2013-02-25 18:56:00
12:56 PM,45.0,21.0,39,29.87,10.0,WSW,16.1,-,N/A,,Clear,250,2013-02-25 19:56:00
2:56 PM,46.9,19.9,34,29.85,10.0,WSW,12.7,-,N/A,,Clear,240,2013-02-25 21:56:00
3:56 PM,46.9,19.9,34,29.84,10.0,SW,11.5,-,N/A,,Clear,220,2013-02-25 22:56:00
4:56 PM,39.9,23.0,51,29.85,10.0,SSW,8.1,-,N/A,,Clear,210,2013-02-25 23:56:00
5:56 PM,35.1,21.9,59,29.85,10.0,SSW,5.8,-,N/A,,Clear,210,2013-02-26 00:56:00
6:56 PM,28.9,21.9,75,29.87,10.0,South,5.8,-,N/A,,Clear,180,2013-02-26 01:56:00
7:56 PM,28.0,21.0,75,29.86,10.0,South,5.8,-,N/A,,Clear,190,2013-02-26 02:56:00
8:56 PM,27.0,19.9,75,29.85,10.0,South,8.1,-,N/A,,Clear,170,2013-02-26 03:56:00
9:56 PM,28.0,18.0,66,29.83,10.0,South,9.2,-,N/A,,Clear,180,2013-02-26 04:56:00
10:56 PM,28.9,19.0,67,29.84,10.0,South,10.4,-,N/A,,Clear,180,2013-02-26 05:56:00
11:56 PM,28.0,19.9,72,29.83,10.0,South,12.7,-,N/A,,Clear,180,2013-02-26 06:56:00